User: anonymous   Login
Location: Ashtead
(51.3000°N, 0.3000°W)
Time: 03:15:09
(UTC+00:00)
Language:

NOSS 3-1 (A) - Orbit

View from above orbital plane
View from above orbital plane
View from above satellite
View from above satellite

Ground track
Ground track

The orbit data is extracted from the following two-line orbital elements,

1 26905U 01040A   24049.78980139 0.00000450  00000-0  28864-3 0    04
2 26905  63.3878 274.0421 0588833   6.9137 353.0863 13.41053072    04
Epoch (UTC): 18 February 2024 18:57:18
Eccentricity: 0.0588833
inclination: 63.3878°
perigee height: 665 km
apogee height: 1546 km
right ascension of ascending node: 274.0421°
argument of perigee: 6.9137°
revolutions per day: 13.41053072
mean anomaly at epoch: 353.0863°
orbit number at epoch: 0

The dashed part of the orbit path shows where the satellite is in the earth's shadow,  

DLR